Date String (YYYY-MM-DD hh:mm:ss) UTC,Instrument flags,Ambient pressure (hPa),Sample flow (lpm),Bypass flow (lpm),Sample temperature (°C),Ambient temperature (°C),ASC tube jacket temperature (°C),LED temperature (°C),Box temperature (°C),Sample RH (%),Span deviation,Mass concentration (μg/m³),Mass concentration (μg/m³),Mass concentration (μg/m³)
DateTimeUTC,F1_M11,P_M11,Q1_M11,Q2_M11,T1_M11,T2_M11,T3_M11,T4_M11,T5_M11,U1_M11,ZSPAN_M11,X0_M11,X2_M11,X1_M11
2022-03-22 03:00:00,,0826.5,4.99,0.00,22.3,21.5,00.0,31.3,24.0,11.2,0000.0,0006.90,0003.18,0002.22
2022-03-22 03:01:00,,0826.5,5.00,0.00,22.3,21.5,00.0,31.3,24.1,11.3,0000.0,0007.08,0003.23,0002.28
2022-03-22 03:02:00,,0826.5,4.99,0.00,22.3,21.5,00.0,31.3,24.1,11.2,0000.0,0006.95,0003.22,0002.32
2022-03-22 03:03:00,,0826.4,5.01,0.00,22.3,21.4,00.0,31.3,24.1,11.3,0000.0,0007.41,0003.22,0002.37
2022-03-22 03:04:00,,0826.4,5.00,0.00,22.3,21.4,00.0,31.3,24.1,11.1,0000.0,0006.70,0003.22,0002.42
2022-03-22 03:05:00,,0826.4,5.00,0.00,22.3,21.4,00.0,31.3,24.0,11.0,0000.0,0006.55,0003.25,0002.47
2022-03-22 03:06:00,,0826.4,5.00,0.00,22.3,21.5,00.0,31.3,24.1,11.1,0000.0,0006.75,0003.31,0002.51
2022-03-22 03:07:00,,0826.5,4.98,0.00,22.3,21.4,00.0,31.3,24.1,11.1,0000.0,0006.72,0003.31,0002.55
2022-03-22 03:08:00,,0826.5,5.00,0.00,22.3,21.4,00.0,31.3,24.1,11.0,0000.0,0007.30,0003.35,0002.58
2022-03-22 03:09:00,,0826.5,5.01,0.00,22.3,21.4,00.0,31.3,24.1,11.0,0000.0,0007.13,0003.35,0002.62
2022-03-22 03:10:00,,0826.5,5.01,0.00,22.3,21.5,00.0,31.3,24.1,11.1,0000.0,0007.15,0003.35,0002.67
2022-03-22 03:11:00,,0826.4,5.00,0.00,22.3,21.5,00.0,31.3,24.0,11.0,0000.0,0007.13,0003.37,0002.69
2022-03-22 03:12:00,,0826.5,5.01,0.00,22.3,21.4,00.0,31.3,24.0,10.9,0000.0,0007.04,0003.36,0002.73
2022-03-22 03:13:00,,0826.5,5.01,0.00,22.3,21.4,00.0,31.3,24.0,10.9,0000.0,0007.17,0003.41,0002.78
2022-03-22 03:14:00,,0826.5,5.00,0.00,22.3,21.4,00.0,31.3,24.0,11.0,0000.0,0006.39,0003.40,0002.80
2022-03-22 03:15:00,,0826.5,5.00,0.00,22.3,21.4,00.0,31.3,24.0,11.2,0000.0,0005.90,0003.39,0002.82
2022-03-22 03:16:00,,0826.5,4.99,0.00,22.3,21.4,00.0,31.3,24.0,11.2,0000.0,0005.94,0003.40,0002.83
2022-03-22 03:17:00,,0826.6,5.00,0.00,22.3,21.4,00.0,31.3,24.0,11.0,0000.0,0005.82,0003.36,0002.82
2022-03-22 03:18:00,,0826.6,5.00,0.00,22.3,21.4,00.0,31.3,24.0,11.1,0000.0,0006.02,0003.38,0002.82
2022-03-22 03:19:00,,0826.6,5.00,0.00,22.3,21.4,00.0,31.3,24.1,11.3,0000.0,0005.59,0003.38,0002.83
2022-03-22 03:20:00,,0826.7,5.01,0.00,22.3,21.4,00.0,31.3,24.1,11.2,0000.0,0005.89,0003.44,0002.86
2022-03-22 03:21:00,,0826.7,4.98,0.00,22.3,21.4,00.0,31.3,24.1,11.3,0000.0,0006.48,0003.46,0002.86
2022-03-22 03:22:00,,0826.6,5.00,0.00,22.3,21.4,00.0,31.3,24.1,11.1,0000.0,0006.79,0003.47,0002.88
2022-03-22 03:23:00,,0826.7,5.00,0.00,22.3,21.4,00.0,31.3,24.0,10.8,0000.0,0006.61,0003.44,0002.88
2022-03-22 03:24:00,,0826.7,5.00,0.00,22.3,21.4,00.0,31.3,24.0,10.8,0000.0,0006.45,0003.41,0002.87
2022-03-22 03:25:00,,0826.7,5.00,0.00,22.3,21.4,00.0,31.3,24.0,11.0,0000.0,0006.49,0003.41,0002.89
2022-03-22 03:26:00,,0826.7,5.00,0.00,22.3,21.4,00.0,31.3,24.0,11.0,0000.0,0006.99,0003.44,0002.89
2022-03-22 03:27:00,,0826.7,5.01,0.00,22.3,21.4,00.0,31.3,24.0,11.1,0000.0,0007.03,0003.45,0002.88
2022-03-22 03:28:00,,0826.7,5.00,0.00,22.3,21.4,00.0,31.3,24.0,11.0,0000.0,0007.01,0003.46,0002.88
2022-03-22 03:29:00,,0826.7,5.00,0.00,22.3,21.8,00.0,31.3,24.1,10.9,0000.0,0006.69,0003.43,0002.88
2022-03-22 03:30:00,,0826.7,5.00,0.00,22.4,22.6,00.0,31.3,24.3,10.9,0000.0,0006.75,0003.43,0002.88
2022-03-22 03:31:00,,0826.8,5.01,0.00,22.6,23.1,00.0,31.4,24.5,10.8,0000.0,0006.58,0003.39,0002.87
2022-03-22 03:32:00,,0826.8,5.00,0.00,22.6,22.9,00.0,31.4,24.6,10.8,0000.0,0006.62,0003.38,0002.87
2022-03-22 03:33:00,,0826.8,5.00,0.00,22.6,22.7,00.0,31.4,24.6,10.7,0000.0,0006.53,0003.37,0002.86
2022-03-22 03:34:00,,0826.8,5.00,0.00,22.6,22.5,00.0,31.4,24.5,10.7,0000.0,0006.96,0003.41,0002.87
2022-03-22 03:35:00,,0826.8,4.99,0.00,22.6,22.4,00.0,31.4,24.5,10.6,0000.0,0007.06,0003.43,0002.88
2022-03-22 03:36:00,,0826.8,5.01,0.00,22.6,22.2,00.0,31.5,24.5,10.7,0000.0,0007.16,0003.46,0002.86
2022-03-22 03:37:00,,0826.8,4.99,0.00,22.6,22.2,00.0,31.5,24.5,10.8,0000.0,0007.68,0003.43,0002.85
2022-03-22 03:38:00,,0826.8,4.99,0.00,22.6,22.1,00.0,31.5,24.4,10.8,0000.0,0007.86,0003.42,0002.84
2022-03-22 03:39:00,,0826.8,4.99,0.00,22.6,22.0,00.0,31.5,24.5,10.6,0000.0,0007.90,0003.42,0002.83
2022-03-22 03:40:00,,0826.9,5.00,0.00,22.6,22.0,00.0,31.5,24.4,10.6,0000.0,0007.97,0003.43,0002.81
2022-03-22 03:41:00,,0826.9,5.00,0.00,22.6,21.9,00.0,31.5,24.4,10.7,0000.0,0007.96,0003.42,0002.80
2022-03-22 03:42:00,,0826.8,5.00,0.00,22.6,21.9,00.0,31.5,24.4,10.8,0000.0,0007.93,0003.41,0002.78
2022-03-22 03:43:00,,0827.1,5.00,0.00,22.6,21.9,00.0,31.5,24.4,10.9,0000.0,0007.62,0003.41,0002.76
2022-03-22 03:44:00,,0827.2,5.01,0.00,22.6,21.8,00.0,31.5,24.4,10.7,0000.0,0007.65,0003.44,0002.76
2022-03-22 03:45:00,,0826.8,5.01,0.00,22.6,21.8,00.0,31.5,24.4,10.7,0000.0,0007.48,0003.44,0002.76
2022-03-22 03:46:00,,0826.8,5.00,0.00,22.6,21.8,00.0,31.5,24.4,10.6,0000.0,0007.42,0003.41,0002.75
2022-03-22 03:47:00,,0826.8,4.99,0.00,22.6,21.8,00.0,31.5,24.4,10.5,0000.0,0007.28,0003.37,0002.74
2022-03-22 03:48:00,,0826.9,4.99,0.00,22.6,21.8,00.0,31.5,24.4,10.4,0000.0,0005.98,0003.39,0002.75
2022-03-22 03:49:00,,0826.9,5.00,0.00,22.6,21.7,00.0,31.5,24.3,10.6,0000.0,0005.58,0003.38,0002.75
2022-03-22 03:50:00,,0826.9,5.00,0.00,22.6,21.7,00.0,31.5,24.3,10.7,0000.0,0005.63,0003.38,0002.77
2022-03-22 03:51:00,,0826.9,5.00,0.00,22.6,21.7,00.0,31.5,24.3,10.4,0000.0,0007.03,0003.41,0002.77
2022-03-22 03:52:00,,0826.9,4.99,0.00,22.6,21.7,00.0,31.5,24.3,10.4,0000.0,0007.04,0003.42,0002.76
2022-03-22 03:53:00,,0826.9,5.00,0.00,22.6,21.7,00.0,31.5,24.3,10.5,0000.0,0007.38,0003.47,0002.78
2022-03-22 03:54:00,,0826.9,5.00,0.00,22.5,21.6,00.0,31.5,24.3,10.6,0000.0,0007.90,0003.49,0002.78
2022-03-22 03:55:00,,0827.0,5.00,0.00,22.5,21.6,00.0,31.5,24.3,10.6,0000.0,0008.27,0003.47,0002.76
2022-03-22 03:56:00,,0827.0,5.00,0.00,22.5,21.6,00.0,31.5,24.3,10.7,0000.0,0008.69,0003.46,0002.73
2022-03-22 03:57:00,,0827.0,5.00,0.00,22.5,21.6,00.0,31.5,24.3,10.7,0000.0,0009.48,0003.49,0002.73
2022-03-22 03:58:00,,0827.0,5.00,0.00,22.5,21.6,00.0,31.5,24.3,10.8,0000.0,0010.19,0003.47,0002.71
2022-03-22 03:59:00,,0827.0,5.00,0.00,22.5,21.6,00.0,31.5,24.3,10.8,0000.0,0010.12,0003.44,0002.70
